{"data":{"norad_id":39423,"intl_designator":"2013-066H","name":"WNISAT-1","alt_names":[],"object_type":"PAYLOAD","status":"ACTIVE","operator":null,"country":"JPN","launch_date":"2013-11-21","launch_site_code":"DLS","launch_vehicle":null,"mission":null,"orbit_class":"UNKNOWN","rcs_meters":0.171,"size_class":null,"mass_kg":null,"dimensions":null,"purposes":["tech_demo"],"wikipedia_slug":null,"has_3d_model":false,"image_url":null,"decayed_at":null,"tle_current":{"epoch":"2026-05-25T03:39:52.244064Z","epoch_age_seconds":62097,"freshness":"FRESH","line1":"1 39423U 13066H   26145.15268801  .00000443  00000+0  89963-4 0  9995","line2":"2 39423  97.7175 295.9475 0161921 304.7485  53.8559 14.58027413663376","mean_motion":14.58027413,"eccentricity":0.0161921,"inclination_deg":97.7175,"raan_deg":295.9475,"arg_perigee_deg":304.7485,"mean_anomaly_deg":53.8559,"bstar":8.9963e-5,"rev_number":66337,"period_min":98.763575167431,"perigee_km":584.94784932857,"apogee_km":814.1530959805,"semimajor_km":7077.6874726545,"source":"CELESTRAK","updated_at":"2026-05-25T13:38:25.493615Z"}}}